Location: Newark
(13.2833°S, 176.1833°W)
Time: 02:11:22
(UTC+00:00)

Hubble Space Telescope - Pass Details

Date: 23 November 2019
Orbit: 536 x 540 km, 28.5° (Epoch: 12 December)

Event Time Altitude Azimuth Distance (km) Brightness Sun altitude
Exits shadow 14:53:24 24° 157° (SSE) 1,133 2.9 -30.0°
Drops below altitude 10° 14:55:30 10° 136° (SE) 1,793 4.3 -29.5°
Sets 14:57:55 0° 127° (SE) 2,686 5.6 -29.0°
